STARLINK-34657, 64775

Orbit data source: Space-Track

STARLINK-34657, 64775 is a payload satellite owned by SpaceX/Seattle (US) in LEO that was launched on Tue, 08 Jul 2025 UTC via an FALCON 9 launch vehicle from the Air Force Eastern Test Range (AFETR). Payload-class satellites include a variety of spacecraft equipped with specific instruments for various scientific and technological missions. These include communications satellites like Starlink; space stations such as the ISS; scientific satellites like the Hubble; Earth observation satellites from companies like Planet Labs, Umbra, and HawkEye 360; GPS; miniature CubeSats for education and research; and military/defense satellites.

Loading next visibility...
Identifier
64775, 2025-147W
Orbit
LEO
Country
Flag of USUS
Related business
Manufacturer
SpaceX/Seattle
Mission
Operational Commercial Communications
Bus & Motor
STARLINK V2MO, Unknown motor
Mass
575 kg wet, ~530 kg dry
Launch date (UTC)
2025-07-08 (1 year ago)
Launch vehicle
FALCON 9
Launch site
Air Force Eastern Test Range (AFETR)
Object type
Payload
Rocket body
Debris
Shape & HBR
Box + 2 Pan, 17.7 m
Radar Cross Section
36.964 m², Large (>1 m²)

Expand to show TLE details & history
Last TLE update: 18 hours ago

TLE from 18 hours ago
0 STARLINK-34657
1 64775U 25147W   26198.41255598  .00013009  00000-0  39552-3 0  9993
2 64775  53.1603 358.0198 0001918 108.7701 251.3510 15.34397828 58646
Epoch: 2026-07-17T09:54Z
TLE epoch observation values (Epoch: 2026-07-17T09:54:04.836Z)
Latitude
-0.00002°
Longitude
-85.74039°
Altitude
464.031 km
Speed
7.635 km/s
True Right ascension
23h 52m 04s
True Declination
0° 00' 00"
Sunlit
Object was in full shadow at epoch
Visualization orbit readout
Latitude
Unknown
Longitude
Unknown
Altitude
Unknown
Speed
Unknown
Apparent Right ascension
Unknown
Apparent Declination
Unknown
Sunlit
N/A
Visualization observer readout
Local Sidereal Time
16:08:55
Azimuth
Unknown
Elevation
Unknown
Doppler factor
Unknown
Orbital elements
Apogee altitude
464.279 km
Perigee altitude
461.654 km
Semi-major axis
6,841.104 km
Eccentricity
0.00019
Inclination
53.1603°
RAAN
358.0198°
Arg. of periapsis
108.7701°
True anomaly
251.33018°
Mean anomaly
251.351°
Eccentric anomaly
251.34059°
Mean motion
3.83578 °/min
Orbital period
93.85 mins
BSTAR
0.00039552
Loading maneuver chart data...
Computing Atmospheric mass density...
Loading historical data...
Loading historical data...
Loading historical data...
Loading historical data...
Loading historical data...
Loading historical data...
Loading historical data...

Documentation

Showing up to 5 results
|